This is the latest recevied weather packets stored in our database for station/object OK3MS-5. If no packets are shown the sender has not sent any weather packets the latest 10 day(s).
| Time | Temp. | Humidity | Pressure | Rain* | Wind** | Luminosity | Snow |
|---|---|---|---|---|---|---|---|
| 1787808604 | 14.44° C | 87% | 1017.7 hPa | 0 mm | - | 38 W/m² | - |
| 1787808303 | 14.44° C | 87% | 1017.7 hPa | 0 mm | - | 37 W/m² | - |
| 1787808002 | 14.44° C | 87% | 1017.5 hPa | 0 mm | - | 34 W/m² | - |
| 1787807702 | 14.44° C | 87% | 1017.6 hPa | 0 mm | - | 32 W/m² | - |
| 1787807402 | 14.44° C | 87% | 1017.6 hPa | 0 mm | - | 30 W/m² | - |
| 1787807105 | 15° C | 86% | 1017.5 hPa | 0 mm | - | 27 W/m² | - |
| 1787806804 | 15° C | 84% | 1017.5 hPa | 0 mm | - | 27 W/m² | - |
| 1787806507 | 14.44° C | 85% | 1017.5 hPa | 0 mm | - | 28 W/m² | - |
| 1787806203 | 14.44° C | 86% | 1017.5 hPa | 0 mm | - | 26 W/m² | - |
| 1787805908 | 13.89° C | 87% | 1017.7 hPa | 0 mm | - | 23 W/m² | - |
| 1787805603 | 13.89° C | 88% | 1017.5 hPa | 0 mm | - | 20 W/m² | - |
| 1787805304 | 13.33° C | 88% | 1017.4 hPa | 0 mm | - | 16 W/m² | - |
| 1787805005 | 13.33° C | 89% | 1017.5 hPa | 0 mm | - | 12 W/m² | - |
| 1787804703 | 12.78° C | 91% | 1017.5 hPa | 0 mm | - | 10 W/m² | - |
| 1787804406 | 13.33° C | 90% | 1017.7 hPa | 0 mm | - | 7 W/m² | - |
| 1787804103 | 13.33° C | 90% | 1017.7 hPa | 0 mm | - | 5 W/m² | - |
| 1787803803 | 13.33° C | 90% | 1017.7 hPa | 0 mm | - | 4 W/m² | - |
| 1787803503 | 13.33° C | 89% | 1017.9 hPa | 0 mm | - | 3 W/m² | - |
| 1787803204 | 13.33° C | 88% | 1017.8 hPa | 0 mm | - | 2 W/m² | - |
| 1787802909 | 13.33° C | 89% | 1017.7 hPa | 0 mm | - | 1 W/m² | - |
| 1787802604 | 13.33° C | 88% | 1017.5 hPa | 0 mm | - | 0 W/m² | - |
| 1787802308 | 13.33° C | 89% | 1017.6 hPa | 0 mm | - | 0 W/m² | - |
| 1787802003 | 13.33° C | 88% | 1017.7 hPa | 0 mm | - | 0 W/m² | - |
| 1787801708 | 13.89° C | 87% | 1017.8 hPa | 0 mm | - | 0 W/m² | - |
| 1787801403 | 13.89° C | 87% | 1017.5 hPa | 0 mm | - | 0 W/m² | - |
* Rain latest hour (hover to see other rain measurements)
** Current wind speed in m/s (hover to see current wind gust speed)